This demonstration page uses our WeatherBlox Daily Observations layout. Learn more.

Left ArrowRight Arrow

34.16533, -84.80231

Hourly Observations for March 31, 2020

Temp ( °F °C ) Dew Point ( °F °C ) Humidity (%) Winds ( mph kmh ) Pressure ( in mb ) Visibility ( mi km ) Precip ( " mm )
12:53 am 00:53 Cloudy with Light Rain 57 13.9 51 10.6 81 81 Calm 29.95 1014 10 16 0.01 0.25
1:53 am 01:53 Cloudy 57 13.9 51 10.6 81 81 Calm 29.93 1014 10 16 0.00 0.00
2:53 am 02:53 Cloudy 56 13.3 51 10.6 84 84 Calm 29.93 1014 10 16 0.01 0.25
3:53 am 03:53 Cloudy 57 13.9 50 10 78 78 Calm 29.91 1013 10 16 0.00 0.00
4:53 am 04:53 Cloudy 56 13.3 49 9.4 77 77 Calm 29.91 1013 10 16 0.00 0.00
5:53 am 05:53 Cloudy 56 13.3 47 8.3 72 72 Calm 29.87 1012 10 16 0.00 0.00
6:53 am 06:53 Cloudy 56 13.3 45 7.2 67 67 Calm 29.83 1010 10 16 0.00 0.00
7:53 am 07:53 Cloudy 55 12.8 46 7.8 72 72 Calm 29.80 1009 10 16 0.00 0.00
8:53 am 08:53 Cloudy 56 13.3 46 7.8 70 70 Calm 29.75 1007 10 16 0.00 0.00
9:53 am 09:53 Cloudy with Light Rain 56 13.3 46 7.8 70 70 N 6 9 29.73 1007 6 10 0.01 0.25
10:09 am 10:09 Cloudy with Rain 53 11.7 50 10 89 89 Calm 29.75 1008 2 3 0.07 1.78
10:20 am 10:20 Cloudy with Rain 53 11.7 49 9.4 86 86 Calm 29.74 1007 4 6 0.10 2.54
10:53 am 10:53 Cloudy with Rain 53 11.7 50 10 89 89 WNW 5 7 29.75 1008 3 5 0.20 5.08
10:57 am 10:57 Cloudy with Rain 53 11.7 50 10 89 89 NNW 8 13 29.84 1011 2 3 0.03 0.76
11:04 am 11:04 Cloudy with Heavy Rain 51 10.6 48 8.9 89 89 VRB 5 7 29.86 1011 1 2 0.15 3.81
11:23 am 11:23 Cloudy with Rain 51 10.6 48 8.9 89 89 NNE 8 13 29.84 1010 3 5 0.22 5.59
11:42 am 11:42 Cloudy with Light Rain 52 11.1 49 9.4 89 89 ENE 8 13 29.79 1009 7 11 0.23 5.84
11:53 am 11:53 Cloudy 52 11.1 49 9.4 89 89 ENE 9 15 29.74 1007 10 16 0.23 5.84
12:21 pm 12:21 Cloudy with Light Rain 55 12.8 51 10.6 87 87 VRB 6 9 29.73 1007 10 16 0.00 0.00
12:53 pm 12:53 Cloudy with Light Rain 56 13.3 51 10.6 84 84 E 9 15 29.68 1005 10 16 0.00 0.00
1:53 pm 13:53 Mostly Cloudy with Light Rain 59 15 50 10 72 72 VRB 5 7 29.64 1004 10 16 0.00 0.00
2:09 pm 14:09 Cloudy with Light Rain 59 15 49 9.4 69 69 ESE 8 13 29.66 1004 10 16 0.00 0.00
2:53 pm 14:53 Cloudy 59 15 51 10.6 75 75 ESE 5 7 29.64 1004 10 16 0.00 0.00
3:53 pm 15:53 Cloudy 59 15 50 10 72 72 Calm 29.63 1004 10 16 0.00 0.00
4:53 pm 16:53 Cloudy 58 14.4 51 10.6 78 78 VRB 5 7 29.66 1004 10 16 0.00 0.00
5:53 pm 17:53 Cloudy 54 12.2 47 8.3 77 77 VRB 7 11 29.70 1006 10 16 0.00 0.00
6:53 pm 18:53 Cloudy 54 12.2 46 7.8 75 75 VRB 3 6 29.73 1007 10 16 0.00 0.00
7:53 pm 19:53 Cloudy 53 11.7 45 7.2 74 74 VRB 3 6 29.77 1008 10 16 0.00 0.00
8:53 pm 20:53 Cloudy 51 10.6 43 6.1 74 74 NNW 7 11 29.80 1009 10 16 0.00 0.00
9:13 pm 21:13 Cloudy 51 10.6 42 5.6 71 71 VRB 5 7 29.85 1011 10 16 0.00 0.00
9:53 pm 21:53 Cloudy 51 10.6 41 5 69 69 VRB 7 11 29.83 1010 10 16 0.00 0.00
10:53 pm 22:53 Cloudy 51 10.6 41 5 69 69 VRB 5 7 29.85 1011 10 16 0.00 0.00
11:53 pm 23:53 Cloudy 51 10.6 40 4.4 66 66 undefined N/A 29.86 1011 10 16 0.00 0.00

Powered by AerisWeather